QPF
0.01 0.01 0.02 0.01 0.01 0.01 0.01 0.01 0.01 0.01 0.01 0.01 0.02 0.03 0.05 0.04 0.04 0.04 0.02 0.02 0.03 0.03 0.02 0.03 0.03 0.03 0.03 0.03 0.02 0.02 0.02 0.02 0.03 0.04 0.03 0.01 0.01 0.01 0.01 0.01 0.01 0.01 0.01
0.00 0.00 0.01 0.02 0.02 0.01 0.01 0.01 0.01 0.01 0.01 0.01 0.01 0.04 0.05 0.04 0.04 0.04 0.02 0.02 0.02 0.02 0.02 0.02 0.02 0.03 0.03 0.03 0.03 0.03 0.03 0.03 0.02 0.04 0.04 0.02 0.02 0.01 0.01 0.01 0.00 0.00 0.00
0.01 0.01 0.01 0.01 0.02 0.03 0.03 0.02 0.01 0.01 0.01 0.01 0.03 0.04 0.04 0.04 0.05 0.04 0.03 0.02 0.02 0.02 0.02 0.02 0.02 0.02 0.03 0.04 0.04 0.04 0.04 0.03 0.03 0.02 0.03 0.03 0.01 0.01 0.01 0.00 0.00 0.00 0.00
0.01 0.01 0.01 0.01 0.02 0.03 0.04 0.04 0.03 0.02 0.03 0.04 0.05 0.04 0.03 0.03 0.03 0.03 0.02 0.02 0.02 0.02 0.02 0.02 0.02 0.02 0.03 0.03 0.04 0.04 0.04 0.04 0.04 0.04 0.04 0.03 0.02 0.01 0.01 0.01 0.00 0.01 0.01
0.01 0.01 0.01 0.01 0.02 0.03 0.04 0.05 0.06 0.05 0.04 0.04 0.04 0.03 0.02 0.02 0.02 0.02 0.02 0.02 0.02 0.02 0.02 0.02 0.02 0.02 0.03 0.03 0.03 0.04 0.04 0.04 0.04 0.04 0.03 0.03 0.03 0.02 0.01 0.01 0.01 0.01 0.01
0.03 0.03 0.02 0.03 0.04 0.04 0.04 0.06 0.07 0.06 0.05 0.04 0.03 0.01 0.01 0.01 0.02 0.01 0.02 0.03 0.03 0.03 0.03 0.03 0.03 0.02 0.02 0.02 0.03 0.03 0.04 0.04 0.03 0.03 0.03 0.03 0.03 0.03 0.03 0.03 0.02 0.02 0.01
0.01 0.01 0.01 0.02 0.08 0.09 0.05 0.05 0.05 0.04 0.03 0.03 0.01 0.01 0.01 0.01 0.02 0.02 0.02 0.03 0.03 0.04 0.04 0.03 0.02 0.01 0.01 0.01 0.01 0.02 0.02 0.03 0.04 0.04 0.03 0.03 0.03 0.03 0.03 0.03 0.03 0.04 0.03
0.01 0.01 0.02 0.02 0.04 0.05 0.04 0.03 0.03 0.03 0.03 0.02 0.02 0.02 0.03 0.03 0.04 0.03 0.03 0.03 0.03 0.04 0.03 0.03 0.02 0.02 0.02 0.03 0.02 0.02 0.02 0.02 0.04 0.05 0.04 0.04 0.04 0.04 0.04 0.04 0.05 0.06 0.05
0.01 0.01 0.02 0.02 0.02 0.02 0.01 0.02 0.02 0.02 0.03 0.03 0.03 0.03 0.04 0.05 0.05 0.05 0.05 0.04 0.04 0.03 0.04 0.04 0.04 0.04 0.04 0.04 0.04 0.04 0.04 0.05 0.04 0.06 0.06 0.05 0.05 0.05 0.06 0.08 0.08 0.08 0.07
0.00 0.00 0.01 0.01 0.01 0.01 0.01 0.02 0.03 0.03 0.03 0.03 0.03 0.03 0.03 0.04 0.04 0.04 0.05 0.04 0.03 0.03 0.04 0.04 0.05 0.05 0.06 0.05 0.05 0.04 0.06 0.07 0.07 0.07 0.05 0.05 0.05 0.07 0.09 0.09 0.09 0.09 0.08
0.01 0.01 0.01 0.01 0.01 0.02 0.02 0.03 0.04 0.04 0.04 0.04 0.04 0.04 0.03 0.03 0.04 0.04 0.05 0.05 0.04 0.04 0.05 0.05 0.06 0.06 0.06 0.05 0.05 0.05 0.06 0.08 0.07 0.07 0.07 0.07 0.06 0.06 0.07 0.07 0.06 0.06 0.06
0.01 0.01 0.01 0.01 0.01 0.02 0.01 0.02 0.02 0.03 0.03 0.03 0.04 0.03 0.03 0.03 0.04 0.05 0.07 0.06 0.05 0.04 0.05 0.05 0.05 0.05 0.05 0.04 0.04 0.05 0.05 0.04 0.03 0.04 0.06 0.07 0.06 0.06 0.05 0.04 0.04 0.04 0.05
0.00 0.01 0.01 0.01 0.01 0.01 0.02 0.02 0.02 0.04 0.04 0.03 0.03 0.03 0.03 0.03 0.03 0.04 0.04 0.04 0.06 0.05 0.04 0.04 0.04 0.03 0.02 0.02 0.02 0.02 0.02 0.01 0.02 0.02 0.02 0.03 0.04 0.04 0.04 0.03 0.03 0.03 0.03
0.01 0.01 0.01 0.01 0.01 0.02 0.02 0.02 0.03 0.03 0.03 0.02 0.01 0.02 0.02 0.02 0.01 0.01 0.01 0.01 0.02 0.03 0.04 0.04 0.04 0.03 0.02 0.01 0.02 0.02 0.01 0.01 0.02 0.02 0.02 0.02 0.02 0.03 0.04 0.04 0.05 0.04 0.04
0.00 0.01 0.01 0.02 0.03 0.03 0.03 0.03 0.03 0.02 0.02 0.02 0.01 0.01 0.01 0.01 0.01 0.01 0.01 0.01 0.02 0.02 0.02 0.02 0.02 0.02 0.01 0.01 0.01 0.01 0.01 0.01 0.01 0.02 0.02 0.03 0.03 0.03 0.03 0.03 0.04 0.04 0.04
0.01 0.01 0.02 0.02 0.03 0.03 0.04 0.05 0.06 0.05 0.03 0.01 0.01 0.01 0.01 0.01 0.01 0.01 0.02 0.02 0.03 0.03 0.02 0.01 0.01 0.02 0.03 0.03 0.02 0.02 0.01 0.01 0.01 0.01 0.02 0.02 0.02 0.02 0.02 0.02 0.02 0.03 0.03
0.02 0.02 0.02 0.02 0.03 0.04 0.05 0.06 0.05 0.03 0.03 0.02 0.01 0.01 0.01 0.01 0.02 0.02 0.03 0.02 0.03 0.03 0.02 0.02 0.03 0.03 0.03 0.03 0.02 0.02 0.02 0.01 0.01 0.01 0.02 0.02 0.02 0.03 0.03 0.02 0.02 0.03 0.03
0.03 0.05 0.05 0.05 0.05 0.04 0.03 0.03 0.03 0.04 0.04 0.04 0.03 0.03 0.03 0.03 0.04 0.05 0.04 0.03 0.03 0.03 0.02 0.03 0.03 0.02 0.02 0.02 0.01 0.01 0.01 0.01 0.01 0.01 0.01 0.01 0.01 0.02 0.03 0.03 0.04 0.04 0.05
0.03 0.03 0.04 0.04 0.04 0.04 0.04 0.05 0.05 0.04 0.04 0.04 0.04 0.04 0.05 0.06 0.07 0.07 0.05 0.03 0.03 0.03 0.02 0.02 0.02 0.01 0.01 0.01 0.01 0.01 0.01 0.01 0.01 0.01 0.01 0.02 0.02 0.02 0.03 0.03 0.03 0.03 0.03
0.03 0.04 0.04 0.05 0.05 0.06 0.05 0.05 0.05 0.04 0.04 0.05 0.04 0.05 0.06 0.06 0.05 0.04 0.04 0.03 0.03 0.02 0.02 0.02 0.01 0.01 0.01 0.01 0.01 0.01 0.01 0.01 0.02 0.02 0.02 0.02 0.02 0.02 0.02 0.02 0.02 0.03 0.03
0.02 0.03 0.04 0.04 0.04 0.04 0.04 0.03 0.03 0.03 0.03 0.04 0.04 0.05 0.05 0.03 0.02 0.02 0.03 0.03 0.03 0.03 0.03 0.02 0.02 0.01 0.01 0.01 0.01 0.01 0.01 0.02 0.02 0.02 0.02 0.02 0.02 0.02 0.02 0.02 0.04 0.06 0.08
0.03 0.02 0.01 0.02 0.03 0.03 0.02 0.01 0.02 0.02 0.02 0.02 0.02 0.02 0.02 0.02 0.02 0.02 0.02 0.03 0.05 0.04 0.03 0.03 0.02 0.02 0.02 0.02 0.02 0.02 0.02 0.02 0.02 0.03 0.03 0.02 0.02 0.03 0.03 0.04 0.06 0.07 0.08
0.02 0.02 0.02 0.02 0.02 0.02 0.01 0.01 0.01 0.02 0.02 0.02 0.02 0.02 0.02 0.02 0.02 0.02 0.02 0.03 0.04 0.04 0.03 0.02 0.02 0.01 0.02 0.02 0.02 0.02 0.02 0.02 0.02 0.02 0.02 0.03 0.03 0.03 0.03 0.04 0.04 0.04 0.05
0.01 0.02 0.02 0.02 0.02 0.02 0.02 0.02 0.02 0.02 0.02 0.02 0.02 0.02 0.02 0.02 0.02 0.02 0.03 0.03 0.02 0.03 0.03 0.02 0.02 0.02 0.02 0.02 0.02 0.02 0.02 0.02 0.02 0.02 0.02 0.02 0.02 0.02 0.03 0.03 0.03 0.04 0.04
0.02 0.02 0.02 0.02 0.02 0.02 0.03 0.03 0.03 0.03 0.03 0.02 0.02 0.02 0.02 0.02 0.02 0.02 0.02 0.03 0.03 0.03 0.02 0.03 0.03 0.03 0.02 0.02 0.02 0.01 0.02 0.02 0.02 0.02 0.02 0.02 0.02 0.02 0.03 0.03 0.03 0.03 0.03
0.04 0.04 0.03 0.03 0.03 0.03 0.04 0.04 0.04 0.04 0.03 0.02 0.02 0.01 0.02 0.02 0.01 0.01 0.02 0.02 0.02 0.03 0.03 0.03 0.02 0.02 0.02 0.02 0.01 0.01 0.01 0.01 0.01 0.01 0.02 0.02 0.03 0.03 0.03 0.03 0.04 0.04 0.04
MSLP
1013.57 1013.58 1013.57 1013.54 1013.48 1013.37 1013.23 1013.08 1012.92 1012.77 1012.66 1012.57 1012.50 1012.44 1012.37 1012.29 1012.19 1012.05 1011.90 1011.75 1011.62 1011.51 1011.44 1011.42 1011.42 1011.44 1011.44 1011.41 1011.32 1011.18 1010.97 1010.71 1010.40 1010.08 1009.77 1009.47 1009.20 1008.98 1008.80 1008.66 1008.56 1008.51 1008.51
1013.65 1013.61 1013.58 1013.55 1013.51 1013.46 1013.40 1013.32 1013.25 1013.17 1013.10 1013.04 1012.98 1012.90 1012.80 1012.68 1012.53 1012.35 1012.17 1011.99 1011.84 1011.72 1011.64 1011.59 1011.57 1011.56 1011.54 1011.49 1011.39 1011.24 1011.04 1010.80 1010.53 1010.24 1009.94 1009.66 1009.38 1009.12 1008.88 1008.66 1008.45 1008.27 1008.13
1014.00 1013.91 1013.86 1013.82 1013.82 1013.82 1013.83 1013.84 1013.85 1013.86 1013.86 1013.84 1013.79 1013.71 1013.60 1013.44 1013.26 1013.05 1012.84 1012.65 1012.48 1012.35 1012.25 1012.19 1012.15 1012.11 1012.06 1011.97 1011.84 1011.67 1011.45 1011.21 1010.94 1010.66 1010.37 1010.09 1009.80 1009.50 1009.19 1008.87 1008.55 1008.23 1007.93
1014.60 1014.48 1014.40 1014.37 1014.38 1014.43 1014.51 1014.60 1014.69 1014.77 1014.83 1014.86 1014.84 1014.77 1014.64 1014.47 1014.27 1014.04 1013.82 1013.62 1013.45 1013.31 1013.22 1013.15 1013.08 1013.01 1012.92 1012.79 1012.61 1012.40 1012.15 1011.87 1011.59 1011.29 1011.00 1010.70 1010.38 1010.04 1009.66 1009.26 1008.82 1008.37 1007.93
1015.39 1015.26 1015.17 1015.14 1015.17 1015.25 1015.37 1015.51 1015.66 1015.80 1015.91 1015.98 1015.98 1015.91 1015.78 1015.60 1015.38 1015.15 1014.93 1014.73 1014.57 1014.44 1014.35 1014.27 1014.20 1014.10 1013.97 1013.79 1013.56 1013.29 1012.99 1012.67 1012.35 1012.03 1011.71 1011.38 1011.03 1010.65 1010.23 1009.75 1009.23 1008.68 1008.12
1016.29 1016.16 1016.08 1016.06 1016.09 1016.18 1016.32 1016.49 1016.67 1016.83 1016.96 1017.04 1017.04 1016.97 1016.84 1016.65 1016.42 1016.19 1015.97 1015.79 1015.64 1015.53 1015.45 1015.38 1015.30 1015.19 1015.02 1014.80 1014.52 1014.20 1013.84 1013.48 1013.11 1012.75 1012.40 1012.05 1011.68 1011.27 1010.82 1010.31 1009.74 1009.13 1008.49
1017.20 1017.10 1017.04 1017.03 1017.06 1017.15 1017.28 1017.44 1017.61 1017.76 1017.88 1017.94 1017.93 1017.85 1017.70 1017.49 1017.26 1017.04 1016.83 1016.65 1016.53 1016.44 1016.38 1016.32 1016.24 1016.11 1015.93 1015.67 1015.36 1014.99 1014.59 1014.18 1013.77 1013.38 1013.01 1012.64 1012.26 1011.85 1011.39 1010.87 1010.30 1009.67 1009.02
1018.05 1018.00 1017.97 1017.96 1017.99 1018.06 1018.16 1018.28 1018.41 1018.53 1018.61 1018.63 1018.59 1018.48 1018.31 1018.09 1017.86 1017.64 1017.44 1017.28 1017.18 1017.11 1017.06 1017.01 1016.94 1016.81 1016.61 1016.33 1015.99 1015.59 1015.16 1014.71 1014.28 1013.87 1013.48 1013.11 1012.73 1012.34 1011.90 1011.42 1010.88 1010.28 1009.66
1018.80 1018.81 1018.81 1018.81 1018.82 1018.86 1018.91 1018.99 1019.06 1019.12 1019.15 1019.12 1019.05 1018.91 1018.72 1018.50 1018.27 1018.05 1017.87 1017.73 1017.64 1017.58 1017.54 1017.49 1017.41 1017.28 1017.07 1016.78 1016.42 1016.00 1015.55 1015.09 1014.64 1014.22 1013.83 1013.46 1013.10 1012.73 1012.34 1011.91 1011.42 1010.90 1010.33
1019.45 1019.50 1019.52 1019.53 1019.53 1019.53 1019.54 1019.55 1019.56 1019.57 1019.54 1019.48 1019.37 1019.22 1019.03 1018.82 1018.60 1018.40 1018.23 1018.10 1018.01 1017.95 1017.91 1017.85 1017.75 1017.60 1017.37 1017.06 1016.68 1016.26 1015.79 1015.32 1014.87 1014.44 1014.05 1013.70 1013.36 1013.03 1012.68 1012.30 1011.89 1011.43 1010.94
1020.00 1020.08 1020.11 1020.12 1020.09 1020.06 1020.02 1019.98 1019.94 1019.90 1019.84 1019.75 1019.64 1019.49 1019.32 1019.14 1018.95 1018.77 1018.61 1018.49 1018.39 1018.31 1018.24 1018.14 1018.01 1017.82 1017.56 1017.22 1016.83 1016.38 1015.91 1015.44 1014.98 1014.55 1014.17 1013.82 1013.49 1013.19 1012.88 1012.55 1012.20 1011.81 1011.39
1020.46 1020.54 1020.58 1020.57 1020.53 1020.46 1020.38 1020.29 1020.22 1020.14 1020.06 1019.98 1019.88 1019.77 1019.64 1019.49 1019.34 1019.20 1019.06 1018.92 1018.80 1018.68 1018.55 1018.40 1018.20 1017.95 1017.63 1017.26 1016.84 1016.37 1015.89 1015.41 1014.95 1014.52 1014.13 1013.78 1013.47 1013.18 1012.89 1012.60 1012.30 1011.97 1011.61
1020.83 1020.91 1020.93 1020.90 1020.82 1020.72 1020.60 1020.49 1020.38 1020.29 1020.22 1020.15 1020.09 1020.03 1019.95 1019.86 1019.75 1019.63 1019.50 1019.35 1019.18 1019.00 1018.79 1018.54 1018.26 1017.93 1017.55 1017.12 1016.66 1016.18 1015.68 1015.19 1014.73 1014.30 1013.91 1013.55 1013.24 1012.95 1012.67 1012.40 1012.13 1011.84 1011.53
1021.12 1021.17 1021.16 1021.09 1020.98 1020.84 1020.69 1020.54 1020.42 1020.33 1020.27 1020.23 1020.21 1020.20 1020.17 1020.13 1020.06 1019.96 1019.81 1019.62 1019.40 1019.13 1018.82 1018.48 1018.09 1017.67 1017.21 1016.73 1016.23 1015.72 1015.22 1014.73 1014.27 1013.84 1013.44 1013.09 1012.77 1012.47 1012.20 1011.94 1011.69 1011.43 1011.16
1021.31 1021.32 1021.27 1021.16 1021.01 1020.82 1020.64 1020.46 1020.32 1020.22 1020.17 1020.15 1020.16 1020.19 1020.20 1020.19 1020.13 1020.02 1019.84 1019.60 1019.29 1018.93 1018.52 1018.06 1017.57 1017.06 1016.54 1016.01 1015.49 1014.97 1014.48 1014.00 1013.55 1013.13 1012.74 1012.39 1012.06 1011.76 1011.49 1011.23 1010.99 1010.75 1010.51
1021.39 1021.36 1021.26 1021.10 1020.90 1020.67 1020.44 1020.23 1020.06 1019.94 1019.88 1019.86 1019.88 1019.91 1019.93 1019.91 1019.83 1019.69 1019.46 1019.14 1018.75 1018.29 1017.77 1017.22 1016.65 1016.08 1015.51 1014.97 1014.44 1013.94 1013.47 1013.03 1012.62 1012.22 1011.85 1011.50 1011.18 1010.87 1010.59 1010.34 1010.10 1009.87 1009.66
1021.35 1021.27 1021.13 1020.92 1020.67 1020.39 1020.11 1019.86 1019.64 1019.49 1019.39 1019.35 1019.34 1019.34 1019.33 1019.27 1019.14 1018.94 1018.64 1018.24 1017.76 1017.22 1016.62 1016.01 1015.39 1014.79 1014.22 1013.69 1013.20 1012.75 1012.34 1011.95 1011.58 1011.22 1010.88 1010.55 1010.23 1009.92 1009.63 1009.37 1009.13 1008.91 1008.72
1021.20 1021.08 1020.89 1020.64 1020.34 1020.01 1019.68 1019.37 1019.11 1018.90 1018.75 1018.65 1018.58 1018.52 1018.44 1018.31 1018.11 1017.82 1017.44 1016.97 1016.42 1015.82 1015.18 1014.54 1013.92 1013.34 1012.81 1012.34 1011.92 1011.55 1011.22 1010.90 1010.60 1010.29 1009.97 1009.65 1009.33 1009.02 1008.71 1008.44 1008.19 1007.96 1007.77
1020.94 1020.79 1020.57 1020.27 1019.93 1019.55 1019.17 1018.81 1018.49 1018.21 1017.99 1017.81 1017.66 1017.52 1017.35 1017.13 1016.84 1016.47 1016.02 1015.49 1014.90 1014.27 1013.63 1013.01 1012.44 1011.92 1011.48 1011.11 1010.80 1010.53 1010.29 1010.05 1009.81 1009.55 1009.25 1008.94 1008.60 1008.26 1007.94 1007.63 1007.35 1007.11 1006.90
1020.59 1020.42 1020.16 1019.84 1019.46 1019.04 1018.62 1018.21 1017.83 1017.48 1017.18 1016.92 1016.68 1016.43 1016.17 1015.86 1015.49 1015.05 1014.54 1013.98 1013.37 1012.76 1012.17 1011.62 1011.13 1010.72 1010.40 1010.15 1009.96 1009.80 1009.66 1009.50 1009.32 1009.08 1008.80 1008.47 1008.10 1007.72 1007.35 1006.99 1006.67 1006.38 1006.14
1020.18 1019.97 1019.69 1019.34 1018.94 1018.49 1018.03 1017.58 1017.14 1016.73 1016.36 1016.02 1015.69 1015.36 1015.00 1014.61 1014.18 1013.68 1013.15 1012.58 1012.00 1011.44 1010.92 1010.47 1010.11 1009.83 1009.64 1009.53 1009.46 1009.41 1009.36 1009.26 1009.11 1008.89 1008.59 1008.23 1007.81 1007.38 1006.94 1006.52 1006.13 1005.80 1005.50
1019.69 1019.46 1019.16 1018.79 1018.36 1017.89 1017.41 1016.92 1016.44 1015.98 1015.54 1015.13 1014.73 1014.33 1013.90 1013.46 1012.97 1012.46 1011.92 1011.38 1010.85 1010.37 1009.95 1009.62 1009.38 1009.24 1009.18 1009.19 1009.24 1009.28 1009.29 1009.23 1009.10 1008.87 1008.54 1008.13 1007.66 1007.16 1006.65 1006.16 1005.71 1005.31 1004.96
1019.13 1018.88 1018.56 1018.17 1017.72 1017.23 1016.72 1016.20 1015.69 1015.19 1014.71 1014.25 1013.79 1013.34 1012.87 1012.39 1011.89 1011.38 1010.86 1010.37 1009.91 1009.51 1009.20 1008.98 1008.86 1008.84 1008.90 1009.01 1009.13 1009.24 1009.29 1009.25 1009.12 1008.86 1008.50 1008.04 1007.52 1006.95 1006.38 1005.83 1005.32 1004.86 1004.47
1018.50 1018.23 1017.88 1017.46 1016.99 1016.48 1015.95 1015.41 1014.87 1014.34 1013.83 1013.33 1012.85 1012.36 1011.87 1011.38 1010.89 1010.39 1009.91 1009.47 1009.07 1008.76 1008.54 1008.41 1008.39 1008.46 1008.59 1008.77 1008.95 1009.09 1009.16 1009.13 1008.98 1008.71 1008.32 1007.82 1007.26 1006.65 1006.04 1005.45 1004.90 1004.41 1003.97
1017.79 1017.48 1017.10 1016.65 1016.16 1015.62 1015.06 1014.50 1013.94 1013.39 1012.86 1012.34 1011.84 1011.34 1010.85 1010.37 1009.89 1009.42 1008.98 1008.58 1008.25 1008.00 1007.84 1007.78 1007.82 1007.93 1008.11 1008.32 1008.52 1008.67 1008.75 1008.71 1008.56 1008.28 1007.88 1007.37 1006.80 1006.18 1005.56 1004.95 1004.39 1003.89 1003.45
1016.97 1016.62 1016.21 1015.73 1015.20 1014.63 1014.05 1013.46 1012.88 1012.32 1011.78 1011.25 1010.75 1010.26 1009.78 1009.31 1008.85 1008.41 1008.01 1007.65 1007.36 1007.15 1007.02 1006.99 1007.05 1007.19 1007.37 1007.58 1007.78 1007.93 1008.00 1007.97 1007.82 1007.54 1007.15 1006.67 1006.11 1005.52 1004.92 1004.34 1003.79 1003.30 1002.86
Thickness
5800 5797 5795 5793 5791 5789 5787 5785 5783 5780 5778 5776 5774 5772 5771 5770 5768 5766 5766 5764 5762 5762 5762 5760 5758 5757 5758 5758 5757 5755 5753 5750 5745 5749 5751 5749 5743 5740 5738 5736 5734 5731 5729
5802 5798 5794 5792 5790 5788 5786 5784 5782 5779 5777 5775 5773 5771 5770 5769 5767 5765 5763 5763 5761 5759 5759 5757 5756 5756 5753 5752 5752 5751 5749 5747 5744 5741 5743 5743 5739 5737 5734 5732 5733 5731 5728
5803 5798 5794 5791 5788 5786 5784 5782 5780 5778 5776 5774 5772 5770 5768 5767 5765 5763 5762 5760 5759 5758 5756 5754 5753 5751 5749 5749 5747 5746 5746 5746 5742 5740 5739 5738 5737 5735 5731 5729 5730 5726 5725
5801 5797 5793 5790 5787 5785 5782 5780 5778 5776 5774 5771 5770 5768 5766 5764 5763 5761 5760 5758 5756 5755 5754 5752 5750 5749 5746 5744 5743 5741 5741 5739 5738 5736 5734 5734 5731 5731 5727 5725 5724 5724 5722
5798 5795 5792 5789 5786 5783 5780 5778 5776 5774 5772 5769 5766 5765 5763 5762 5760 5757 5756 5755 5753 5751 5750 5748 5747 5744 5741 5739 5740 5738 5736 5734 5733 5731 5730 5729 5727 5723 5722 5723 5721 5719 5718
5795 5792 5790 5786 5783 5781 5778 5776 5773 5770 5768 5766 5763 5762 5760 5760 5755 5751 5749 5750 5748 5746 5744 5743 5742 5739 5736 5733 5731 5728 5726 5726 5726 5724 5724 5722 5719 5719 5718 5716 5714 5711 5709
5791 5789 5786 5783 5780 5778 5776 5773 5769 5766 5764 5761 5760 5758 5756 5754 5750 5746 5743 5744 5744 5742 5739 5738 5739 5739 5733 5732 5728 5724 5722 5719 5716 5717 5717 5716 5715 5715 5711 5709 5707 5705 5704
5788 5785 5783 5780 5777 5774 5771 5769 5766 5764 5761 5758 5756 5754 5752 5750 5744 5741 5738 5739 5740 5739 5736 5734 5732 5730 5728 5724 5723 5721 5720 5718 5714 5712 5711 5711 5711 5709 5706 5703 5701 5699 5698
5784 5782 5780 5777 5773 5770 5766 5763 5761 5759 5756 5754 5752 5750 5747 5744 5739 5735 5732 5736 5735 5734 5732 5730 5727 5724 5719 5714 5713 5712 5711 5711 5709 5707 5705 5703 5701 5699 5697 5696 5694 5692 5691
5780 5778 5776 5773 5769 5766 5762 5759 5757 5754 5751 5749 5747 5745 5743 5740 5734 5730 5725 5731 5729 5728 5727 5724 5719 5715 5711 5707 5706 5705 5703 5703 5704 5703 5700 5697 5697 5695 5691 5689 5689 5686 5685
5776 5773 5770 5767 5764 5761 5758 5755 5752 5749 5746 5744 5742 5740 5738 5735 5730 5725 5720 5723 5723 5721 5721 5719 5716 5707 5703 5699 5697 5697 5695 5694 5696 5696 5696 5694 5693 5691 5688 5685 5683 5681 5679
5769 5766 5764 5761 5759 5757 5752 5749 5746 5743 5740 5738 5736 5734 5733 5730 5726 5720 5715 5712 5712 5712 5712 5712 5709 5700 5695 5691 5689 5688 5686 5684 5688 5689 5688 5687 5686 5684 5682 5680 5676 5674 5672
5761 5758 5756 5754 5751 5750 5746 5743 5740 5738 5736 5735 5732 5730 5729 5727 5723 5715 5709 5706 5703 5702 5704 5700 5696 5691 5687 5685 5682 5680 5678 5680 5681 5680 5680 5679 5679 5677 5675 5672 5669 5666 5663
5752 5750 5748 5746 5744 5742 5740 5739 5737 5733 5731 5729 5726 5724 5723 5720 5718 5713 5707 5702 5696 5694 5694 5691 5686 5683 5681 5680 5678 5676 5675 5675 5674 5673 5673 5672 5671 5669 5667 5665 5662 5659 5656
5744 5742 5741 5740 5738 5735 5733 5731 5729 5726 5723 5718 5718 5716 5714 5712 5708 5701 5699 5697 5694 5691 5686 5685 5683 5681 5680 5678 5676 5674 5671 5669 5667 5666 5665 5663 5661 5659 5657 5656 5652 5650 5647
5736 5734 5734 5733 5731 5729 5727 5724 5719 5717 5712 5708 5705 5702 5704 5700 5695 5691 5687 5684 5681 5678 5676 5678 5676 5675 5673 5671 5668 5666 5664 5662 5660 5658 5656 5654 5652 5650 5649 5646 5644 5640 5637
5728 5727 5727 5726 5724 5723 5720 5717 5714 5709 5704 5701 5697 5693 5690 5687 5684 5681 5677 5674 5671 5667 5669 5671 5669 5668 5665 5663 5660 5658 5656 5653 5651 5648 5645 5644 5642 5640 5638 5636 5634 5631 5629
5720 5718 5717 5717 5716 5715 5712 5710 5708 5705 5701 5698 5692 5686 5682 5678 5674 5671 5667 5664 5666 5662 5664 5664 5662 5659 5656 5653 5652 5650 5647 5645 5642 5639 5636 5634 5632 5630 5628 5626 5624 5621 5619
5710 5710 5708 5707 5706 5705 5703 5701 5701 5698 5694 5691 5688 5682 5675 5671 5665 5661 5657 5660 5662 5660 5659 5656 5654 5652 5650 5647 5644 5641 5638 5636 5633 5630 5627 5624 5621 5619 5616 5615 5614 5609 5607
5701 5697 5696 5696 5696 5694 5694 5691 5690 5687 5684 5681 5678 5675 5671 5667 5664 5658 5654 5653 5652 5651 5650 5648 5646 5643 5640 5638 5635 5632 5629 5626 5623 5620 5617 5614 5612 5609 5606 5604 5603 5601 5599
5693 5691 5685 5687 5686 5684 5683 5682 5680 5677 5674 5671 5669 5666 5658 5659 5656 5653 5649 5646 5643 5641 5639 5637 5634 5632 5630 5627 5625 5622 5619 5616 5613 5610 5607 5604 5601 5599 5597 5595 5593 5591 5589
5683 5682 5680 5678 5675 5673 5671 5670 5669 5667 5664 5661 5659 5656 5648 5648 5646 5643 5639 5637 5634 5631 5628 5626 5623 5621 5619 5616 5614 5611 5608 5606 5602 5599 5596 5593 5590 5589 5587 5585 5583 5581 5578
5673 5672 5670 5668 5666 5662 5660 5660 5659 5657 5654 5652 5648 5645 5641 5638 5636 5633 5629 5625 5622 5620 5617 5614 5612 5610 5607 5605 5602 5599 5595 5592 5589 5585 5583 5581 5580 5578 5576 5575 5573 5571 5569
5663 5662 5660 5658 5655 5654 5651 5650 5648 5646 5644 5641 5638 5635 5631 5627 5625 5621 5617 5614 5610 5608 5605 5602 5599 5597 5593 5590 5588 5585 5580 5576 5573 5572 5570 5569 5568 5568 5567 5565 5564 5563 5561
5652 5651 5650 5647 5645 5644 5642 5639 5637 5634 5632 5629 5626 5624 5621 5618 5614 5610 5606 5602 5599 5596 5593 5590 5587 5584 5581 5578 5574 5570 5565 5562 5558 5557 5557 5558 5558 5557 5556 5555 5553 5552 5551
5641 5640 5638 5636 5634 5632 5630 5628 5626 5623 5620 5618 5616 5614 5610 5607 5603 5600 5596 5592 5588 5585 5582 5579 5576 5572 5569 5566 5561 5557 5553 5550 5548 5546 5546 5547 5548 5547 5546 5544 5543 5542 5540